When you browse on this site, cookies collect data to enhance your experience and personalize the content and advertising you see.
Visit our Privacy Policy to learn more. By continuing to use the site, you agree to this use of cookies and data.
  • In Denmark
  • List of Countries
  • For 7 days
  • Water Temperature
  • Satellite Maps
  • Weather Map
  • Weather Widgets
  • user-avatar
    Login

    Hourly Weather Chasovnya

    Today, 26 May, Sunday

    Time Temperature Precipitation Wind Pressure Humidity
    00:00 +13°C° 0 mm 2 mps 733 mmHg 96%
    01:00 +13°C° 0 mm 2 mps 732 mmHg 96%
    02:00 +13°C° 0 mm 2 mps 732 mmHg 96%
    03:00 +13°C° 0 mm 1 mps 732 mmHg 96%
    04:00 +14°C° 0 mm 1 mps 732 mmHg 95%
    05:00 +14°C° 0 mm 1 mps 732 mmHg 94%
    06:00 +15°C° 0 mm 0 mps 732 mmHg 89%
    07:00 +16°C° 0 mm 0 mps 732 mmHg 84%
    08:00 +18°C° 0 mm 0 mps 732 mmHg 80%
    09:00 +21°C° 0.5 mm 1 mps 732 mmHg 76%
    10:00 +20°C° 0.5 mm 2 mps 732 mmHg 72%
    11:00 +21°C° 0.5 mm 2 mps 732 mmHg 68%
    12:00 +21°C° 0.7 mm 3 mps 732 mmHg 67%
    13:00 +21°C° 0.7 mm 4 mps 732 mmHg 67%
    14:00 +22°C° 0.7 mm 4 mps 732 mmHg 67%
    15:00 +21°C° 0.2 mm 4 mps 732 mmHg 68%
    16:00 +21°C° 0.2 mm 3 mps 732 mmHg 70%
    17:00 +21°C° 0.2 mm 3 mps 732 mmHg 72%
    18:00 +19°C° 0.1 mm 3 mps 732 mmHg 76%
    19:00 +17°C° 0.1 mm 3 mps 733 mmHg 80%
    20:00 +16°C° 0.1 mm 3 mps 733 mmHg 85%
    21:00 +14°C° 0 mm 3 mps 733 mmHg 86%
    22:00 +13°C° 0 mm 3 mps 733 mmHg 87%
    23:00 +12°C° 0 mm 4 mps 734 mmHg 88%

    Tomorrow, 27 May, Monday

    Time Temperature Precipitation Wind Pressure Humidity
    00:00 +11°C° 0 mm 3 mps 734 mmHg 90%
    01:00 +10°C° 0 mm 3 mps 734 mmHg 92%
    02:00 +10°C° 0 mm 3 mps 735 mmHg 93%
    03:00 +10°C° 0 mm 3 mps 735 mmHg 93%
    04:00 +10°C° 0 mm 3 mps 735 mmHg 92%
    05:00 +10°C° 0 mm 4 mps 736 mmHg 91%
    06:00 +12°C° 0 mm 4 mps 736 mmHg 86%
    07:00 +13°C° 0 mm 4 mps 737 mmHg 81%
    08:00 +15°C° 0 mm 4 mps 737 mmHg 76%
    09:00 +15°C° 0 mm 4 mps 737 mmHg 73%
    10:00 +17°C° 0 mm 4 mps 738 mmHg 70%
    11:00 +18°C° 0 mm 4 mps 738 mmHg 67%
    12:00 +19°C° 0 mm 5 mps 738 mmHg 65%
    13:00 +19°C° 0 mm 5 mps 738 mmHg 64%
    14:00 +20°C° 0 mm 5 mps 739 mmHg 62%
    15:00 +20°C° 0 mm 4 mps 739 mmHg 64%
    16:00 +20°C° 0 mm 4 mps 739 mmHg 66%
    17:00 +20°C° 0 mm 3 mps 739 mmHg 69%
    18:00 +19°C° 0 mm 3 mps 739 mmHg 74%
    19:00 +17°C° 0 mm 3 mps 739 mmHg 80%
    20:00 +16°C° 0 mm 3 mps 739 mmHg 86%
    21:00 +14°C° 0 mm 3 mps 739 mmHg 87%
    22:00 +14°C° 0 mm 3 mps 740 mmHg 89%
    23:00 +13°C° 0 mm 3 mps 740 mmHg 90%

    Day after tomorrow, 28 May, Tuesday

    Time Temperature Precipitation Wind Pressure Humidity
    00:00 +13°C° 0 mm 3 mps 740 mmHg 92%
    01:00 +13°C° 0 mm 3 mps 740 mmHg 93%
    02:00 +13°C° 0 mm 4 mps 740 mmHg 94%
    03:00 +13°C° 0 mm 4 mps 740 mmHg 94%
    04:00 +14°C° 0 mm 4 mps 740 mmHg 93%
    05:00 +15°C° 0 mm 4 mps 740 mmHg 93%
    06:00 +17°C° 0 mm 4 mps 741 mmHg 89%
    07:00 +19°C° 0 mm 4 mps 741 mmHg 85%
    08:00 +21°C° 0 mm 5 mps 741 mmHg 82%
    09:00 +22°C° 0 mm 5 mps 741 mmHg 77%
    10:00 +23°C° 0 mm 5 mps 741 mmHg 73%
    11:00 +25°C° 0 mm 5 mps 741 mmHg 68%
    12:00 +26°C° 0.1 mm 5 mps 741 mmHg 67%
    13:00 +26°C° 0.1 mm 6 mps 741 mmHg 66%
    14:00 +26°C° 0.1 mm 6 mps 741 mmHg 66%
    15:00 +26°C° 0 mm 5 mps 741 mmHg 68%
    16:00 +26°C° 0 mm 4 mps 741 mmHg 71%
    17:00 +25°C° 0 mm 4 mps 741 mmHg 74%
    18:00 +23°C° 0 mm 4 mps 741 mmHg 79%
    19:00 +21°C° 0 mm 4 mps 741 mmHg 84%
    20:00 +19°C° 0 mm 3 mps 741 mmHg 89%
    21:00 +19°C° 0 mm 3 mps 741 mmHg 90%
    22:00 +18°C° 0 mm 3 mps 741 mmHg 91%
    23:00 +18°C° 0 mm 3 mps 742 mmHg 93%

    29 May, Wednesday

    Time Temperature Precipitation Wind Pressure Humidity
    00:00 +17°C° 0 mm 3 mps 742 mmHg 93%
    01:00 +17°C° 0 mm 3 mps 742 mmHg 93%
    02:00 +17°C° 0 mm 3 mps 742 mmHg 93%
    03:00 +17°C° 0 mm 3 mps 742 mmHg 92%
    04:00 +18°C° 0 mm 4 mps 742 mmHg 90%
    05:00 +18°C° 0 mm 4 mps 742 mmHg 89%
    06:00 +20°C° 0 mm 4 mps 742 mmHg 84%
    07:00 +21°C° 0 mm 4 mps 742 mmHg 79%
    08:00 +23°C° 0 mm 5 mps 742 mmHg 73%
    09:00 +25°C° 0 mm 5 mps 742 mmHg 70%
    10:00 +26°C° 0 mm 5 mps 742 mmHg 67%
    11:00 +27°C° 0 mm 6 mps 742 mmHg 64%
    12:00 +27°C° 0 mm 6 mps 742 mmHg 63%
    13:00 +27°C° 0 mm 6 mps 742 mmHg 62%
    14:00 +27°C° 0 mm 6 mps 742 mmHg 62%
    15:00 +27°C° 0 mm 5 mps 742 mmHg 65%
    16:00 +27°C° 0 mm 4 mps 742 mmHg 69%
    17:00 +26°C° 0 mm 3 mps 741 mmHg 72%
    18:00 +25°C° 0 mm 3 mps 741 mmHg 78%
    19:00 +22°C° 0 mm 3 mps 741 mmHg 83%
    20:00 +20°C° 0 mm 3 mps 741 mmHg 89%
    21:00 +20°C° 0 mm 3 mps 741 mmHg 90%
    22:00 +19°C° 0 mm 3 mps 741 mmHg 91%
    23:00 +19°C° 0 mm 3 mps 742 mmHg 92%

    30 May, Thursday

    Time Temperature Precipitation Wind Pressure Humidity
    00:00 +18°C° 0 mm 3 mps 742 mmHg 93%
    01:00 +18°C° 0 mm 3 mps 742 mmHg 94%
    02:00 +17°C° 0 mm 3 mps 742 mmHg 94%
    03:00 +18°C° 0 mm 3 mps 742 mmHg 93%
    04:00 +18°C° 0 mm 3 mps 742 mmHg 91%
    05:00 +18°C° 0 mm 4 mps 742 mmHg 90%
    06:00 +20°C° 0 mm 4 mps 742 mmHg 84%
    07:00 +21°C° 0 mm 5 mps 742 mmHg 79%
    08:00 +23°C° 0 mm 5 mps 742 mmHg 73%
    09:00 +25°C° 0 mm 5 mps 742 mmHg 69%
    10:00 +26°C° 0 mm 6 mps 742 mmHg 64%
    11:00 +27°C° 0 mm 6 mps 742 mmHg 59%
    12:00 +27°C° 0 mm 6 mps 742 mmHg 59%
    13:00 +27°C° 0 mm 6 mps 741 mmHg 59%
    14:00 +27°C° 0 mm 6 mps 741 mmHg 59%
    15:00 +27°C° 0 mm 5 mps 741 mmHg 63%
    16:00 +27°C° 0 mm 5 mps 741 mmHg 67%
    17:00 +26°C° 0 mm 4 mps 741 mmHg 71%
    18:00 +25°C° 0 mm 4 mps 741 mmHg 75%
    19:00 +22°C° 0 mm 4 mps 741 mmHg 78%
    20:00 +21°C° 0 mm 3 mps 741 mmHg 81%
    21:00 +20°C° 0 mm 3 mps 741 mmHg 83%
    22:00 +20°C° 0 mm 3 mps 741 mmHg 84%
    23:00 +19°C° 0 mm 3 mps 741 mmHg 86%

    31 May, Friday

    Time Temperature Precipitation Wind Pressure Humidity
    00:00 +19°C° 0 mm 4 mps 741 mmHg 86%
    01:00 +19°C° 0 mm 4 mps 741 mmHg 87%
    02:00 +18°C° 0 mm 4 mps 741 mmHg 87%
    03:00 +19°C° 0 mm 4 mps 741 mmHg 87%
    04:00 +19°C° 0 mm 4 mps 740 mmHg 86%
    05:00 +19°C° 0 mm 4 mps 740 mmHg 86%
    06:00 +21°C° 0 mm 5 mps 740 mmHg 82%
    07:00 +22°C° 0 mm 5 mps 741 mmHg 77%
    08:00 +25°C° 0 mm 5 mps 741 mmHg 73%
    09:00 +25°C° 0.5 mm 5 mps 741 mmHg 70%
    10:00 +26°C° 0.5 mm 5 mps 741 mmHg 67%
    11:00 +27°C° 0.5 mm 5 mps 740 mmHg 65%
    12:00 +27°C° 1.2 mm 5 mps 741 mmHg 66%
    13:00 +26°C° 1.2 mm 4 mps 741 mmHg 67%
    14:00 +26°C° 1.2 mm 4 mps 741 mmHg 67%
    15:00 +26°C° 0.5 mm 3 mps 741 mmHg 71%
    16:00 +25°C° 0.5 mm 3 mps 741 mmHg 74%
    17:00 +25°C° 0.5 mm 2 mps 741 mmHg 77%
    18:00 +23°C° 0.8 mm 2 mps 741 mmHg 82%
    19:00 +20°C° 0.8 mm 3 mps 742 mmHg 87%
    20:00 +19°C° 0.8 mm 3 mps 742 mmHg 93%
    21:00 +18°C° 0.1 mm 4 mps 742 mmHg 94%
    22:00 +17°C° 0.1 mm 4 mps 742 mmHg 95%
    23:00 +15°C° 0.1 mm 4 mps 742 mmHg 96%
    Show more